Wind_Speed
50 51 51 52 52 52 53 53 53 54 54 56 56 57 57 56 56 55 55 54 53 53 53 54 54 54 53 53 52 52 51 50 50 49 48 49 50 50 50 49 47 48
52 53 53 53 53 53 54 54 53 53 54 55 56 57 57 58 57 57 56 56 55 54 55 55 55 55 54 54 53 53 52 51 51 51 49 50 51 50 49 48 46 45
54 54 55 55 55 55 55 55 54 54 54 54 55 56 57 58 59 58 58 57 56 56 56 56 56 56 55 55 54 53 53 52 52 52 51 51 51 50 49 47 44 43
56 56 56 56 56 55 55 55 55 55 54 54 54 55 56 57 59 59 59 58 58 57 57 57 57 57 56 55 54 54 53 52 52 52 52 52 52 50 49 46 42 42
59 58 58 58 57 56 56 56 56 55 55 55 55 54 55 56 58 59 59 59 59 58 58 58 58 57 57 56 55 54 53 51 51 52 52 53 53 50 48 44 41 41
62 61 60 59 59 58 57 57 56 56 56 56 56 55 55 55 56 58 59 59 59 59 58 58 58 57 57 56 56 54 53 52 51 53 53 53 53 51 47 42 40 42
64 63 62 60 60 59 58 58 57 57 56 56 56 56 56 55 55 56 58 59 59 59 59 59 58 58 57 56 56 55 53 52 51 53 53 52 52 51 46 41 40 43
65 65 64 62 62 61 59 58 57 57 56 56 56 56 57 56 56 56 57 58 59 59 59 59 58 58 57 57 56 55 54 52 51 52 52 51 51 50 45 39 41 44
66 66 66 64 63 62 60 59 58 57 56 56 56 56 56 57 57 57 57 57 58 59 59 59 59 58 58 57 56 56 55 53 52 52 51 50 50 49 44 39 43 46
66 66 66 65 63 62 61 60 58 57 56 56 56 56 56 56 57 57 57 57 58 58 59 60 59 59 58 57 56 56 55 54 52 51 50 49 49 48 42 38 45 47
64 65 66 65 64 62 60 59 58 57 56 56 57 57 56 56 57 57 57 57 57 58 59 60 60 60 59 58 57 56 56 54 52 51 50 48 47 46 41 39 48 50
64 65 66 66 64 61 58 58 57 57 56 57 57 57 57 57 57 57 57 57 57 57 58 59 60 60 59 59 58 57 56 54 52 51 50 48 46 45 39 41 51 53
66 66 65 65 63 61 59 58 57 57 56 56 57 57 58 58 57 57 57 57 57 57 57 58 59 60 60 59 59 57 56 54 53 51 50 48 46 44 39 43 53 55
66 65 65 64 64 63 62 60 59 57 57 57 57 58 58 58 58 58 57 57 57 57 57 58 58 59 60 60 59 58 56 54 53 51 50 48 45 43 40 45 55 56
65 65 65 65 65 65 64 63 61 59 58 58 58 58 58 58 58 58 58 58 58 58 57 58 58 58 59 59 59 58 56 54 52 52 50 48 45 43 41 46 57 58
65 65 65 66 66 66 65 64 63 61 60 59 58 58 58 58 59 59 58 58 58 58 58 58 58 58 58 58 59 58 56 54 52 51 51 48 46 44 42 46 57 61
66 66 66 66 66 66 65 64 63 62 61 60 59 59 59 59 59 59 59 59 59 59 58 58 58 59 59 58 58 58 57 55 53 51 51 50 47 45 43 46 57 62
65 66 66 66 66 65 65 64 64 63 62 61 60 60 60 60 60 60 60 59 59 59 59 59 59 59 59 59 59 58 57 56 54 53 51 50 49 47 45 47 55 63
64 65 65 66 66 66 65 65 64 63 63 62 62 62 61 61 61 61 61 61 61 61 61 60 60 60 60 60 60 59 58 57 55 54 52 52 51 49 47 47 53 62
64 64 65 66 66 66 66 65 65 64 64 64 64 64 63 63 63 63 63 63 63 63 62 62 62 62 62 62 61 61 60 59 57 56 54 53 52 51 50 49 52 60
64 65 66 67 67 66 66 65 65 65 65 66 66 66 66 65 65 65 65 65 65 65 65 64 64 64 64 63 63 63 62 61 60 58 56 55 55 54 52 51 52 58
65 66 67 67 67 67 67 67 67 67 67 67 67 68 68 68 68 68 67 67 67 68 68 68 67 67 66 66 66 65 64 63 62 61 59 58 57 56 55 54 53 56
66 67 68 68 68 68 68 68 68 68 69 69 69 70 70 71 71 71 71 70 70 71 71 71 71 70 70 69 69 68 67 66 65 63 62 61 59 59 58 57 56 56
68 68 68 69 69 69 69 69 70 70 71 71 71 72 72 73 74 74 74 74 74 74 75 75 75 74 74 73 72 71 71 70 68 66 65 64 63 61 60 60 59 58
68 69 69 69 70 70 71 71 72 72 73 73 74 74 75 76 76 76 77 77 77 77 78 78 78 78 78 77 77 75 74 73 72 70 68 67 66 65 63 63 62 61
69 69 70 70 71 72 72 73 74 75 76 76 76 77 77 78 78 78 78 78 78 78 79 80 80 80 80 80 80 79 78 76 75 74 72 70 69 68 67 66 65 65
Wind_Direction
281 281 281 281 282 281 281 281 280 280 279 277 275 274 274 273 273 274 275 276 277 277 278 278 279 281 283 284 286 288 289 291 292 293 294 294 293 289 284 278 270 257
282 282 283 282 280 280 280 281 280 279 278 277 276 275 274 273 273 273 274 274 275 276 276 278 279 281 283 284 286 287 289 291 293 294 294 295 294 292 287 281 273 258
283 284 284 283 281 280 280 280 279 279 278 277 276 275 274 273 273 272 273 274 275 275 276 277 278 280 281 283 284 286 288 290 293 294 295 296 295 293 290 283 273 258
283 283 283 283 282 281 280 279 279 278 278 277 276 275 274 273 272 272 272 273 274 275 275 276 277 278 280 281 283 284 287 289 292 294 295 296 296 294 291 284 271 256
282 282 282 282 282 282 280 279 278 278 277 277 276 276 275 273 272 272 271 272 273 273 274 275 276 277 279 280 282 284 286 288 291 293 294 295 296 295 292 283 266 250
281 282 282 282 282 281 280 279 278 277 277 277 277 276 275 274 273 272 271 271 271 272 273 275 276 277 278 280 281 283 285 287 290 292 293 295 295 295 292 280 259 244
282 282 283 282 282 281 280 279 278 277 277 277 277 276 276 275 274 273 271 271 271 271 272 274 275 276 277 279 280 282 283 285 288 290 291 293 294 294 292 275 251 238
282 283 283 283 282 281 280 280 279 278 277 276 276 276 276 276 275 274 272 272 271 271 271 272 274 275 276 278 279 280 282 284 286 288 290 292 292 293 290 269 242 233
283 283 283 283 282 281 281 280 279 278 277 276 276 276 276 276 275 275 274 273 272 271 271 271 272 274 275 276 277 279 281 282 284 286 288 290 290 292 288 262 234 228
282 283 283 283 281 280 280 280 279 278 277 276 276 276 276 275 275 275 274 274 273 272 271 271 272 272 273 274 275 277 279 280 282 284 286 288 288 290 284 254 229 226
281 281 282 282 281 280 280 280 280 279 278 277 276 276 276 276 275 275 274 274 273 272 271 271 271 271 272 273 274 275 277 278 280 282 284 286 286 288 280 247 226 225
279 280 281 282 283 283 282 281 281 280 279 278 277 277 276 276 276 275 274 274 273 272 271 270 270 270 271 272 272 274 275 276 278 280 282 283 283 285 275 243 226 226
279 280 281 283 284 285 285 284 283 282 280 278 277 277 277 276 276 275 275 274 273 272 271 270 270 270 270 271 271 272 273 274 276 277 279 281 280 281 271 240 226 228
279 280 281 283 284 285 286 285 285 283 280 278 277 277 277 277 276 276 275 274 273 273 272 271 270 270 270 270 270 271 272 273 274 274 276 277 276 277 267 239 227 228
279 279 280 282 283 284 285 286 285 283 280 278 277 277 277 276 276 276 275 274 273 273 272 271 271 270 270 270 270 271 271 271 271 272 273 274 272 273 265 240 227 229
278 279 280 281 282 284 285 285 284 282 280 279 277 277 277 276 276 276 275 274 273 273 272 271 271 270 269 269 269 270 270 269 269 269 270 271 269 268 264 243 229 229
278 279 280 281 282 283 284 284 284 282 280 279 278 277 277 276 276 276 275 274 274 273 272 271 270 269 269 269 268 268 269 268 267 267 267 268 266 264 262 248 232 229
278 279 280 281 282 283 284 284 284 283 281 280 279 279 278 277 277 276 275 275 274 273 272 271 270 269 269 268 268 267 267 266 266 265 264 265 264 261 259 251 237 231
279 280 281 282 283 284 285 285 284 284 283 282 281 280 279 278 278 277 276 275 274 273 272 271 270 269 268 268 267 267 266 265 265 264 262 262 262 259 257 252 242 234
280 282 283 284 285 285 286 286 285 285 284 283 282 281 280 279 279 278 277 276 275 273 272 271 270 269 268 267 267 266 265 264 263 262 261 260 259 258 255 252 245 237
283 283 284 285 286 286 286 286 286 285 285 284 284 283 282 281 280 279 278 278 277 275 274 272 271 270 268 267 266 265 264 264 262 261 259 258 257 256 254 251 248 241
284 284 285 286 286 287 287 287 287 286 286 285 284 284 283 282 281 280 279 278 278 277 276 274 273 271 270 268 267 266 264 263 262 260 259 257 255 254 252 250 248 244
285 286 286 287 287 288 288 287 287 286 286 285 285 284 284 283 283 282 281 280 279 278 277 276 274 273 271 270 268 267 265 263 261 260 258 257 254 252 251 249 246 245
286 287 287 287 288 287 287 287 286 286 285 285 284 284 283 283 282 282 281 280 280 279 277 277 276 274 273 271 269 268 266 264 262 260 258 256 254 252 250 248 245 243
287 287 288 288 288 288 287 287 286 286 285 285 284 284 283 283 282 281 281 280 279 279 278 276 275 274 273 272 271 269 267 265 263 261 258 255 254 251 249 247 245 242
288 288 288 288 288 288 288 288 287 287 287 286 286 285 285 284 284 283 282 281 280 279 278 277 275 274 272 271 270 269 267 265 263 261 259 256 253 251 248 246 245 242
Height
10664 10663 10662 10662 10661 10660 10659 10658 10657 10656 10656 10655 10655 10655 10656 10656 10655 10655 10655 10656 10657 10656 10655 10654 10653 10652 10651 10650 10649 10648 10647 10645 10644 10643 10641 10639 10637 10635 10633 10633 10634 10635
10659 10658 10657 10657 10656 10655 10654 10652 10652 10651 10650 10649 10649 10649 10649 10649 10649 10648 10648 10649 10650 10649 10648 10646 10646 10645 10644 10643 10643 10642 10640 10639 10637 10636 10634 10632 10630 10628 10626 10625 10626 10626
10654 10653 10651 10650 10650 10649 10648 10647 10645 10645 10645 10644 10643 10643 10643 10642 10642 10642 10641 10642 10642 10641 10640 10639 10638 10638 10638 10637 10636 10636 10634 10632 10630 10629 10627 10625 10623 10621 10619 10618 10618 10619
10648 10647 10645 10644 10643 10642 10641 10640 10639 10638 10638 10638 10637 10637 10636 10636 10636 10635 10635 10635 10634 10634 10633 10632 10631 10631 10631 10630 10630 10629 10628 10626 10624 10622 10620 10618 10617 10615 10613 10612 10612 10613
10641 10640 10639 10638 10637 10636 10635 10634 10633 10632 10632 10631 10631 10630 10630 10630 10629 10629 10628 10628 10628 10627 10626 10625 10624 10624 10623 10623 10623 10623 10622 10620 10618 10616 10614 10611 10610 10608 10607 10606 10606 10608
10635 10634 10633 10633 10631 10630 10629 10628 10626 10626 10626 10625 10624 10624 10624 10623 10623 10622 10622 10621 10621 10620 10619 10618 10617 10616 10616 10616 10615 10615 10614 10613 10611 10610 10608 10606 10603 10602 10601 10600 10600 10603
10628 10627 10626 10626 10625 10623 10622 10621 10620 10620 10619 10619 10618 10617 10617 10616 10616 10615 10615 10614 10614 10613 10612 10611 10610 10609 10609 10608 10608 10608 10607 10606 10605 10603 10602 10600 10597 10596 10594 10594 10595 10597
10621 10619 10619 10619 10618 10616 10615 10614 10614 10613 10613 10612 10611 10611 10610 10609 10609 10608 10607 10607 10607 10606 10604 10604 10603 10602 10601 10601 10600 10600 10600 10600 10599 10597 10595 10594 10592 10590 10588 10588 10589 10592
10614 10612 10611 10611 10610 10609 10608 10607 10607 10606 10606 10605 10604 10604 10603 10602 10601 10600 10600 10599 10599 10598 10597 10596 10595 10595 10594 10594 10593 10593 10592 10592 10592 10591 10589 10588 10586 10584 10583 10582 10584 10587
10607 10605 10603 10602 10602 10602 10601 10600 10600 10599 10599 10598 10597 10596 10596 10595 10594 10593 10592 10592 10591 10591 10589 10588 10588 10587 10586 10586 10586 10585 10585 10585 10585 10584 10583 10582 10580 10579 10578 10577 10579 10582
10600 10598 10595 10594 10594 10594 10594 10593 10593 10592 10591 10590 10590 10588 10588 10587 10586 10585 10585 10584 10584 10583 10582 10580 10580 10579 10578 10578 10578 10578 10578 10578 10578 10577 10576 10576 10574 10573 10572 10572 10574 10575
10592 10590 10588 10587 10586 10586 10586 10586 10585 10584 10584 10583 10582 10580 10579 10578 10578 10577 10577 10576 10576 10575 10574 10573 10572 10571 10570 10570 10570 10571 10571 10571 10571 10570 10570 10569 10568 10567 10566 10566 10568 10569
10584 10582 10581 10580 10579 10578 10578 10578 10577 10576 10576 10575 10573 10572 10571 10570 10570 10569 10569 10568 10568 10567 10566 10565 10564 10563 10562 10562 10562 10562 10563 10564 10564 10563 10563 10562 10561 10561 10561 10561 10561 10562
10576 10575 10574 10573 10572 10571 10570 10570 10569 10568 10567 10566 10565 10564 10563 10562 10561 10561 10560 10560 10559 10559 10558 10557 10556 10555 10554 10554 10553 10554 10556 10556 10556 10556 10555 10555 10555 10554 10554 10554 10555 10555
10569 10568 10567 10566 10565 10564 10562 10561 10560 10559 10559 10558 10557 10556 10555 10554 10553 10552 10552 10551 10550 10550 10549 10549 10548 10547 10547 10546 10545 10546 10547 10549 10549 10548 10548 10548 10548 10547 10547 10547 10548 10549
10561 10561 10560 10559 10558 10556 10554 10553 10552 10551 10550 10550 10549 10548 10547 10546 10545 10544 10543 10542 10541 10541 10541 10540 10539 10539 10539 10538 10537 10537 10538 10540 10541 10541 10540 10540 10540 10540 10539 10540 10541 10542
10553 10553 10552 10551 10550 10548 10546 10545 10543 10542 10542 10541 10541 10540 10539 10537 10536 10535 10534 10533 10532 10532 10531 10531 10531 10530 10530 10529 10529 10528 10529 10530 10532 10533 10532 10532 10532 10532 10532 10532 10533 10534
10546 10545 10544 10542 10541 10540 10538 10536 10535 10533 10532 10532 10531 10530 10529 10528 10527 10526 10525 10524 10523 10522 10522 10521 10521 10521 10520 10520 10520 10519 10520 10521 10522 10524 10524 10524 10523 10524 10524 10524 10525 10527
10539 10538 10536 10534 10533 10531 10530 10528 10526 10524 10522 10522 10521 10520 10519 10518 10517 10516 10515 10514 10514 10512 10511 10511 10511 10511 10510 10509 10509 10509 10510 10511 10512 10514 10515 10515 10514 10515 10515 10516 10517 10518
10531 10530 10528 10526 10524 10522 10520 10519 10517 10515 10513 10511 10511 10510 10509 10508 10507 10506 10505 10504 10503 10502 10501 10501 10500 10500 10500 10499 10499 10499 10499 10500 10502 10503 10504 10505 10505 10505 10506 10507 10508 10510
10523 10521 10519 10517 10515 10513 10511 10510 10508 10506 10504 10502 10500 10499 10498 10497 10496 10496 10494 10493 10491 10490 10489 10489 10489 10489 10488 10488 10488 10488 10489 10489 10490 10492 10493 10494 10495 10496 10496 10497 10499 10500
10515 10513 10510 10508 10506 10504 10502 10500 10498 10496 10494 10492 10490 10488 10487 10485 10484 10484 10483 10482 10480 10478 10477 10476 10476 10476 10476 10476 10476 10476 10477 10478 10479 10480 10482 10483 10484 10485 10486 10487 10489 10490
10506 10504 10502 10499 10497 10495 10493 10491 10489 10486 10484 10482 10480 10478 10476 10474 10472 10471 10470 10469 10468 10466 10464 10463 10463 10463 10463 10463 10463 10463 10464 10465 10467 10468 10470 10471 10473 10474 10475 10476 10478 10480
10498 10495 10493 10491 10488 10486 10484 10481 10479 10476 10474 10472 10470 10468 10465 10463 10461 10459 10457 10456 10455 10454 10452 10450 10449 10448 10448 10448 10449 10449 10450 10451 10453 10455 10457 10459 10461 10463 10464 10465 10467 10469
10489 10486 10484 10481 10479 10476 10474 10471 10468 10466 10463 10461 10459 10457 10454 10451 10449 10447 10445 10444 10442 10441 10438 10436 10434 10434 10433 10433 10433 10434 10435 10437 10438 10441 10443 10446 10448 10450 10452 10454 10456 10458
10479 10477 10474 10471 10469 10466 10463 10460 10457 10454 10451 10449 10447 10445 10442 10439 10436 10434 10432 10430 10429 10427 10425 10421 10419 10418 10418 10417 10417 10417 10418 10420 10422 10425 10427 10431 10434 10436 10439 10441 10444 10446